GW0410 Weather Reports


time (UTC)temp
C
wind
direction
speed
KPH
gust
KPH
rain 1hr
cm
rain 24hr
cm
rain mn
cm
humidity
%
barometer
mb
20260505153052 26 146 3.2 11.3 0.00 0.00 0.00 37 1006.4
20260505152021 27 182 3.2 6.4 0.00 0.00 0.00 35 1006.4
20260505151053 28 138 3.2 11.3 0.00 0.00 0.00 33 1006.8
20260505125021 26 177 1.6 8.0 0.00 0.00 0.00 36 1008.6
20260505124024 26 148 4.8 12.9 0.00 0.00 0.00 37 1008.5
20260505123024 26 152 3.2 8.0 0.00 0.00 0.00 37 1008.8
20260505122027 24 184 3.2 11.3 0.00 0.00 0.00 38 1008.8
20260505121028 24 145 1.6 6.4 0.00 0.00 0.00 40 1008.5
20260505120027 25 158 4.8 12.9 0.00 0.00 0.00 40 1008.8
20260505115022 25 195 6.4 12.9 0.00 0.00 0.00 38 1008.8
20260505114028 25 125 3.2 6.4 0.00 0.00 0.00 39 1008.9
20260505113045 25 111 4.8 9.7 0.00 0.00 0.00 41 1008.9
20260505112028 25 142 3.2 8.0 0.00 0.00 0.00 39 1008.9
20260505111026 26 201 3.2 11.3 0.00 0.00 0.00 38 1009.2
20260505102043 24 170 3.2 9.7 0.00 0.00 0.00 42 1009.2
20260505101022 25 201 3.2 8.0 0.00 0.00 0.00 41 1009.2
20260505100533 24 221 1.6 9.7 0.00 0.00 0.00 42 1009.6
20260505095034 25 203 3.2 12.9 0.00 0.00 0.00 42 1009.6
20260505094027 23 234 1.6 4.8 0.00 0.00 0.00 42 1009.9
20260505093025 23 122 3.2 9.7 0.00 0.00 0.00 44 1009.9
20260505092021 22 180 0.0 4.8 0.00 0.00 0.00 46 1009.8
20260505091025 22 197 3.2 12.9 0.00 0.00 0.00 46 1010.1
20260505090027 22 193 1.6 6.4 0.00 0.00 0.00 46 1010.1
20260505085022 21 225 3.2 14.5 0.00 0.00 0.00 46 1010.2
20260505084027 21 170 1.6 6.4 0.00 0.00 0.00 47 1010.2
20260505083028 21 181 4.8 12.9 0.00 0.00 0.00 45 1010.2
20260505082028 21 181 1.6 8.0 0.00 0.00 0.00 47 1010.2
20260505081027 20 210 1.6 6.4 0.00 0.00 0.00 49 1010.2
20260505080028 20 179 1.6 9.7 0.00 0.00 0.00 49 1010.5
20260505075024 20 194 1.6 9.7 0.00 0.00 0.00 50 1010.6
20260505074029 21 171 1.6 9.7 0.00 0.00 0.00 49 1010.3
20260505073025 21 214 0.0 4.8 0.00 0.00 0.00 50 1010.6
20260505072045 21 351 0.0 0.0 0.00 0.00 0.00 49 1010.7
20260505071043 20 192 0.0 3.2 0.00 0.00 0.00 49 1010.6
20260505070023 19 111 0.0 1.6 0.00 0.00 0.00 52 1010.6
20260505065026 17 0.0 0.0 0.00 0.00 0.00 56 1010.6
20260505064023 17 0.0 0.0 0.00 0.00 0.00 58 1010.8
20260505063030 17 0.0 0.0 0.00 0.00 0.00 61 1010.8
20260505062047 16 0.0 0.0 0.00 0.00 0.00 63 1010.9
20260505061045 14 0.0 0.0 0.00 0.00 0.00 68 1010.5
20260505060032 12 0.0 0.0 0.00 0.00 0.00 71 1010.4
20260505055034 12 0.0 0.0 0.00 0.00 0.00 75 1010.4
20260505054026 11 0.0 0.0 0.00 0.00 0.00 79 1010.7
20260505053112 10 0.0 0.0 0.00 0.00 0.00 82 1010.3
20260505052021 8 0.0 0.0 0.00 0.00 0.00 84 1010.3
20260505051028 8 0.0 0.0 0.00 0.00 0.00 84 1010.3
20260505041028 6 0.0 0.0 0.00 0.00 0.00 88 1010.3
20260505040026 6 0.0 0.0 0.00 0.00 0.00 88 1010.6
20260505035021 6 0.0 0.0 0.00 0.00 0.00 88 1010.6
20260505034028 6 0.0 0.0 0.00 0.00 0.00 88 1010.6
20260505033044 6 0.0 0.0 0.00 0.00 0.00 87 1010.3
20260505032020 6 0.0 0.0 0.00 0.00 0.00 87 1010.4
20260505031021 6 0.0 0.0 0.00 0.00 0.00 86 1010.7
20260505030045 6 0.0 0.0 0.00 0.00 0.00 86 1011.1
20260505025031 6 0.0 0.0 0.00 0.00 0.00 85 1011.1
20260505024023 6 0.0 0.0 0.00 0.00 0.00 85 1011.1
20260505023050 6 0.0 0.0 0.00 0.00 0.00 85 1011.1
20260505022052 7 0.0 0.0 0.00 0.00 0.00 84 1011.1
20260505021022 7 0.0 0.0 0.00 0.00 0.00 82 1010.8
20260505020032 7 0.0 0.0 0.00 0.00 0.00 82 1011.2
20260505015050 7 0.0 0.0 0.00 0.00 0.00 81 1011.2
20260505014036 8 0.0 0.0 0.00 0.00 0.00 80 1011.1
20260505013020 8 0.0 0.0 0.00 0.00 0.00 80 1011.2
20260505012049 8 0.0 0.0 0.00 0.00 0.00 80 1011.2
20260505011047 8 0.0 0.0 0.00 0.00 0.00 80 1011.2
20260505010050 8 0.0 0.0 0.00 0.00 0.00 79 1011.5
20260505005020 8 0.0 0.0 0.00 0.00 0.00 79 1011.5
20260505004037 8 0.0 0.0 0.00 0.00 0.00 80 1011.8
20260505003027 8 0.0 0.0 0.00 0.00 0.00 80 1011.8
20260505002026 8 0.0 0.0 0.00 0.00 0.00 79 1011.8
20260505001033 8 0.0 0.0 0.00 0.00 0.00 79 1012.1
20260505000031 8 0.0 0.0 0.00 0.00 0.00 79 1012.1
20260504235040 9 0.0 0.0 0.00 0.00 0.00 80 1012.1
20260504234059 9 0.0 0.0 0.00 0.00 0.00 79 1012.2
20260504233044 9 338 0.0 1.6 0.00 0.00 0.00 79 1012.2
20260504232020 10 0.0 0.0 0.00 0.00 0.00 78 1012.2
20260504231024 10 0.0 0.0 0.00 0.00 0.00 78 1012.5
20260504230028 10 0.0 0.0 0.00 0.00 0.00 76 1012.8
20260504225029 10 0.0 0.0 0.00 0.00 0.00 76 1012.8
20260504224019 10 0.0 0.0 0.00 0.00 0.00 76 1012.5
20260504223022 10 0.0 0.0 0.00 0.00 0.00 75 1012.9
20260504222052 10 0.0 0.0 0.00 0.00 0.00 76 1012.9
20260504221046 10 0.0 0.0 0.00 0.00 0.00 75 1012.8
20260504220544 10 0.0 0.0 0.00 0.00 0.00 74 1012.8
20260504215030 11 0.0 0.0 0.00 0.00 0.00 74 1012.8
20260504214033 11 0.0 0.0 0.00 0.00 0.00 74 1013.1
20260504213044 11 0.0 0.0 0.00 0.00 0.00 73 1013.1
20260504212045 11 0.0 0.0 0.00 0.00 0.00 72 1013.1
20260504211022 11 0.0 0.0 0.00 0.00 0.00 70 1013.2
20260504210024 11 0.0 0.0 0.00 0.00 0.00 69 1013.2
20260504205024 11 0.0 0.0 0.00 0.00 0.00 67 1013.2
20260504204024 12 0.0 0.0 0.00 0.00 0.00 66 1013.3
20260504203023 13 0.0 0.0 0.00 0.00 0.00 62 1013.3
20260504202029 13 0.0 0.0 0.00 0.00 0.00 61 1013.3
20260504201023 13 0.0 0.0 0.00 0.00 0.00 60 1013.3
20260504200025 14 0.0 0.0 0.00 0.00 0.00 58 1013.3
20260504195044 15 0.0 0.0 0.00 0.00 0.00 56 1013.3
20260504194041 15 0.0 0.0 0.00 0.00 0.00 55 1013.2
20260504193027 15 0.0 0.0 0.00 0.00 0.00 54 1013.3
20260504192042 15 0.0 0.0 0.00 0.00 0.00 53 1013.3
20260504191023 16 0.0 0.0 0.00 0.00 0.00 52 1013.4
20260504190026 17 0.0 0.0 0.00 0.00 0.00 49 1013.4
20260504185025 17 0.0 0.0 0.00 0.00 0.00 49 1013.4
20260504184023 17 0.0 0.0 0.00 0.00 0.00 49 1013.5
20260504183023 17 0.0 0.0 0.00 0.00 0.00 50 1013.1
20260504182023 17 0.0 0.0 0.00 0.00 0.00 49 1013.1
20260504181027 18 0.0 0.0 0.00 0.00 0.00 47 1013.0
20260504180051 19 0.0 0.0 0.00 0.00 0.00 46 1013.0
20260504175023 20 0.0 0.0 0.00 0.00 0.00 44 1013.0
20260504174115 20 0.0 0.0 0.00 0.00 0.00 43 1013.1
20260504173031 21 0.0 0.0 0.00 0.00 0.00 42 1013.1
20260504172043 21 168 0.0 0.0 0.00 0.00 0.00 40 1013.1
20260504171029 22 126 0.0 1.6 0.00 0.00 0.00 38 1013.0